Weather History for KSLN - February, 2014

Change the Weather History Date:

Saturday, February 22, 2014

  Actual Average Record
Temperature  
Mean Temperature 42 °F 38 °F  
Max Temperature 58 °F 49 °F 76 °F (1982)
Min Temperature 25 °F 27 °F 3 °F (1911)
Degree Days  
Heating Degree Days 23 27  
Month to date heating degree days 797 668  
Since 1 July heating degree days 4030 3684  
Cooling Degree Days 0 0  
Month to date cooling degree days 0 0  
Year to date cooling degree days 0 0  
Moisture  
Dew Point 24 °F    
Average Humidity 53    
Maximum Humidity 81    
Minimum Humidity 25    
Precipitation  
Precipitation 0.00 in 0.04 in 0.97 in (2000)
Month to date precipitation 1.22 0.88  
Year to date precipitation 1.71 1.51  
Sea Level Pressure  
Sea Level Pressure 29.96 in    
Wind  
Wind Speed 9 mph (NNE)    
Max Wind Speed 21 mph    
Max Gust Speed 25 mph    
Visibility 10 miles    
Events      
T = Trace of Precipitation, MM = Missing Value Source: NWS Daily Summary

Daily Weather History Graph

Daily Weather History Graph

Search for Another Location

Airport or City:

Trip Planner

Search our weather history database for the weather conditions in past years. The results will help you decide how hot, cold, wet, or windy it might be!

Date:

Astronomy

Feb. 22, 2014 Rise Set
Actual Time 7:12 AM CST 6:16 PM CST
Civil Twilight 6:45 AM CST 6:42 PM CST
Nautical Twilight 6:14 AM CST 7:13 PM CST
Astronomical Twilight 5:43 AM CST 7:44 PM CST
Moon 1:07 AM CST (2/22) 11:29 AM CST (2/22)
Length of Visible Light 11h 57m
Length of Day
11h 03m
Waning Gibbous, 50% of the Moon is Illuminated
Feb 22
Waning Gibbous
Mar 1
New
Mar 8
First Quarter
Mar 16
Full
Mar 23
Last Quarter

Hourly Weather History & Observations

Time (CST) Temp. Windchill Dew Point Humidity Pressure Visibility Wind Dir Wind Speed Gust Speed Precip Events Conditions
12:53 AM 32.0 °F - 21.9 °F 66% 29.93 in 10.0 mi Calm Calm - N/A   Clear
1:53 AM 30.9 °F - 21.9 °F 69% 29.91 in 10.0 mi Calm Calm - N/A   Clear
2:53 AM 30.0 °F 26.5 °F 21.9 °F 72% 29.90 in 10.0 mi WNW 3.5 mph - N/A   Clear
3:53 AM 28.0 °F - 21.0 °F 75% 29.89 in 10.0 mi Calm Calm - N/A   Clear
4:53 AM 26.1 °F - 19.9 °F 78% 29.89 in 10.0 mi Calm Calm - N/A   Clear
5:53 AM 27.0 °F 20.5 °F 19.9 °F 75% 29.91 in 10.0 mi NNW 5.8 mph - N/A   Clear
6:53 AM 27.0 °F 19.5 °F 21.0 °F 78% 29.93 in 10.0 mi North 6.9 mph - N/A   Clear
7:53 AM 27.0 °F 23.0 °F 21.0 °F 78% 29.94 in 10.0 mi NE 3.5 mph - N/A   Clear
8:53 AM 34.0 °F 29.8 °F 26.1 °F 73% 29.96 in 10.0 mi NW 4.6 mph - N/A   Clear
9:53 AM 39.9 °F 36.7 °F 25.0 °F 55% 29.96 in 10.0 mi NE 4.6 mph - N/A   Clear
10:53 AM 50.0 °F - 24.1 °F 36% 29.95 in 10.0 mi NE 11.5 mph - N/A   Clear
11:53 AM 54.0 °F - 24.1 °F 31% 29.94 in 10.0 mi NE 13.8 mph - N/A   Clear
12:53 PM 55.9 °F - 23.0 °F 28% 29.91 in 10.0 mi NE 10.4 mph - N/A   Clear
1:53 PM 57.0 °F - 23.0 °F 27% 29.90 in 10.0 mi NE 11.5 mph - N/A   Clear
2:53 PM 57.9 °F - 24.1 °F 27% 29.91 in 10.0 mi North 12.7 mph 20.7 mph N/A   Clear
3:53 PM 55.9 °F - 26.1 °F 32% 29.92 in 10.0 mi NE 13.8 mph - N/A   Clear
4:53 PM 53.1 °F - 28.0 °F 38% 29.94 in 10.0 mi NNE 15.0 mph - N/A   Clear
5:53 PM 50.0 °F - 28.0 °F 43% 29.97 in 10.0 mi NE 12.7 mph - N/A   Clear
6:53 PM 45.0 °F 39.3 °F 28.9 °F 53% 29.99 in 10.0 mi NE 11.5 mph - N/A   Clear
7:53 PM 41.0 °F 33.9 °F 28.0 °F 60% 30.00 in 10.0 mi NE 12.7 mph 21.9 mph N/A   Clear
8:53 PM 37.9 °F 29.6 °F 27.0 °F 65% 30.04 in 10.0 mi NE 13.8 mph 24.2 mph N/A   Clear
9:53 PM 36.0 °F 26.3 °F 27.0 °F 70% 30.06 in 10.0 mi NNE 16.1 mph 21.9 mph N/A   Clear
10:53 PM 34.0 °F 24.2 °F 25.0 °F 70% 30.08 in 10.0 mi NE 15.0 mph 25.3 mph N/A   Clear
11:53 PM 33.1 °F 23.0 °F 21.9 °F 64% 30.10 in 10.0 mi NE 15.0 mph 21.9 mph N/A   Clear